Flag for Japan Weather past 2 weeks in Kawasaki, Japan

Now
63 °F

Partly sunny.


Feels Like: 63 °F
Forecast: 49 / 59 °F
Wind: 8 mph from South

Location: Tokyo International Airport

Current Time: Apr 1, 2015 at 5:52:40 PM

Latest Report: Apr 1, 2015 at 5:00 PM


Visibility: 5 mi

Pressure: 29.68 "Hg

Humidity: 83%

Dew point: 57 °F

Location of KawasakiLocation

Historic Weather in Kawasaki — Graph

°F

Kawasaki temperature yesterday

Maximum temperature yesterday: 70 °F (at 11:01 AM)
Minimum temperature yesterday: 52 °F (at 5:00 AM)
Average temperature yesterday: 61 °F

Past Weeks' High & Low Weather Summary

 TemperatureHumidityPressure
High70 °F (Mar 31, 11:01 AM)100% (Mar 18, 7:30 AM)30.45 "Hg (Mar 18, 7:30 AM)
Low39 °F (Mar 24, 4:30 AM)17% (Mar 24, 2:00 PM)29.65 "Hg (Mar 19, 2:00 PM)
Average54 °F62%30.02 "Hg
* Reported Mar 17 4:00 PM — Apr 1 4:30 PM, Kawasaki, Weather by CustomWeather, © 2015

Note: Actual official high and low records may vary slightly from our data, if they occured in-between our weather recording intervals... More about our weather records

Advertising

Kawasaki weather history for previous 24 hours

 ConditionsComfort  
Time TempWeatherWind HumidityBarometerVisibility
4:30 PM
Wed, Apr 1
63 °FPartly sunny.7 mph83%29.68 "HgN/A
4:00 PM63 °FBroken clouds.5 mph77%29.68 "HgN/A
3:30 PM63 °FPartly sunny.7 mph77%29.68 "HgN/A
3:00 PM61 °FLight rain. Partly sunny.7 mph83%29.68 "HgN/A
2:30 PM61 °FLight rain. Fog.8 mph83%29.74 "HgN/A
2:00 PM61 °FRain. Fog.9 mph83%29.74 "HgN/A
1:30 PM64 °FLight rain. Partly sunny.10 mph73%29.74 "HgN/A
1:00 PM66 °FBroken clouds.14 mph68%29.77 "HgN/A
12:30 PM66 °FBroken clouds.12 mph68%29.77 "HgN/A
11:30 AM59 °FPartly sunny.6 mph82%29.80 "Hg5 mi
11:00 AM59 °FPartly sunny.5 mph82%29.83 "Hg5 mi
10:30 AM59 °FLight rain. Partly sunny.6 mph82%29.83 "Hg4 mi
10:00 AM59 °FLight rain. Partly sunny.3 mph82%29.86 "Hg4 mi
9:45 AM59 °FLight rain. Partly sunny.2 mph82%29.86 "Hg4 mi
9:30 AM59 °FLight rain. Fog.5 mph82%29.86 "Hg3 mi
9:00 AM61 °FFog.3 mph72%29.86 "Hg3 mi
8:30 AM59 °FLight rain. Fog.3 mph77%29.86 "Hg3 mi
8:00 AM59 °FLight rain. Fog.1 mph72%29.89 "Hg3 mi
7:30 AM59 °FLight rain. Partly sunny.2 mph72%29.86 "Hg4 mi
7:00 AM59 °FClear.5 mph72%29.89 "Hg4 mi
6:30 AM57 °FClear.6 mph77%29.89 "Hg4 mi
6:00 AM57 °FClear.5 mph77%29.89 "Hg4 mi
5:30 AM59 °FClear.9 mph72%29.86 "Hg4 mi
5:00 AM61 °FClear.6 mph68%29.86 "Hg10 mi
4:30 AM59 °FClear.6 mph72%29.86 "Hg10 mi
4:00 AM57 °FClear.7 mph77%29.86 "Hg10 mi
3:30 AM57 °FClear.6 mph77%29.86 "Hg10 mi
3:00 AM59 °FClear.9 mph72%29.89 "Hg10 mi
2:30 AM61 °FClear.13 mph72%29.89 "Hg10 mi
2:00 AM61 °FClear.16 mph77%29.89 "Hg10 mi
1:30 AM61 °FClear.17 mph72%29.89 "Hg10 mi
1:00 AM61 °FPassing clouds.16 mph72%29.92 "HgN/A
12:30 AM61 °FClear.15 mph72%29.92 "Hg10 mi
12:00 AM61 °FPassing clouds.15 mph68%29.92 "HgN/A
11:30 PM
Tue, Mar 31
61 °FClear.20 mph68%29.92 "Hg10 mi
11:00 PM61 °FClear.20 mph68%29.95 "Hg10 mi
10:30 PM61 °FClear.17 mph68%29.95 "Hg10 mi
10:00 PM61 °FClear.17 mph63%29.95 "Hg10 mi
9:30 PM61 °FClear.22 mph59%29.95 "Hg10 mi
9:00 PM61 °FClear.25 mph59%29.95 "Hg10 mi
8:48 PM63 °FClear.20 mph59%29.95 "Hg10 mi
8:30 PM61 °FClear.20 mph68%29.98 "Hg10 mi
8:00 PM61 °FClear.21 mph68%29.98 "Hg10 mi
7:30 PM61 °FClear.18 mph72%29.95 "Hg10 mi
7:00 PM61 °FClear.24 mph72%29.95 "Hg10 mi
6:45 PM61 °FClear.23 mph72%29.95 "Hg10 mi
6:30 PM61 °FClear.26 mph72%29.95 "Hg10 mi
6:00 PM63 °FScattered clouds.25 mph64%29.95 "HgN/A
5:30 PM63 °FScattered clouds.24 mph59%29.95 "HgN/A
5:00 PM63 °FPassing clouds.21 mph73%29.95 "HgN/A
Weather by CustomWeather, © 2015

See weather overviewHow to use our weather pages